Palermo, Italy

2:47 AM CET on November 19, 2018 (GMT +0100)
Punta Raisi

Weather History for LICJ - February, 2018

Change the Weather History Date:

Wednesday, February 14, 2018

  Actual Average Record
Temperature  
Mean Temperature 52 °F -  
Max Temperature 55 °F 60 °F 64 °F (2016)
Min Temperature 48 °F 51 °F 37 °F (2009)
Degree Days  
Heating Degree Days 14    
Growing Degree Days 2 (Base 50)    
Moisture  
Dew Point 41 °F    
Average Humidity 68    
Maximum Humidity 87    
Minimum Humidity 41    
Precipitation  
Precipitation 0.24 in 0.08 in - ()
Sea Level Pressure  
Sea Level Pressure 29.93 in    
Wind  
Wind Speed 18 mph ()    
Max Wind Speed 32 mph    
Max Gust Speed 37 mph    
Visibility 5.8 miles    
Events Rain , Thunderstorm    
Averages and records for this station are not official NWS values.
T = Trace of Precipitation, MM = Missing Value Source: Averaged Metar Reports

Daily Weather History Graph

Daily Weather History Graph

Search for Another Location

Airport or City:

Astronomy

Feb. 14, 2018 Rise Set
Actual Time 6:59 AM CET 5:44 PM CET
Civil Twilight 6:32 AM CET 6:11 PM CET
Nautical Twilight 6:01 AM CET 6:42 PM CET
Astronomical Twilight 5:30 AM CET 7:13 PM CET
Moon 6:06 AM CET (2/14) 4:31 PM CET (2/14)
Length of Visible Light 11h 39m
Length of Day
10h 45m
Waning Crescent, 2% of the Moon is Illuminated
Feb 14
Waning Crescent
Feb 15
New
Feb 23
First Quarter
Mar 2
Full
Mar 9
Last Quarter

Hourly Weather History & Observations

Time (CET) Temp. Dew Point Humidity Pressure Visibility Wind Dir Wind Speed Gust Speed Precip Events Conditions
12:20 AM 51.8 °F 41.0 °F 67% 30.01 in 6.2 mi WNW 13.8 mph - N/A   Scattered Clouds
12:50 AM 53.6 °F 37.4 °F 54% 30.01 in 6.2 mi West 25.3 mph - N/A   Scattered Clouds
1:00 AM 53 °F 36 °F 41% 30.02 in - West 25.3 mph - -  
1:20 AM 53.6 °F 33.8 °F 47% 30.01 in 6.2 mi West 25.3 mph - N/A   Scattered Clouds
1:50 AM 53.6 °F 37.4 °F 54% 30.01 in 6.2 mi West 24.2 mph - N/A   Scattered Clouds
2:20 AM 51.8 °F 37.4 °F 58% 30.01 in 6.2 mi West 21.9 mph - N/A Rain Light Rain
2:50 AM 53.6 °F 37.4 °F 54% 29.98 in 5.6 mi West 21.9 mph - N/A   Scattered Clouds
3:20 AM 53.6 °F 39.2 °F 58% 29.98 in 6.2 mi West 20.7 mph - N/A   Scattered Clouds
3:50 AM 53.6 °F 39.2 °F 58% 29.98 in 6.2 mi West 19.6 mph - N/A   Scattered Clouds
4:00 AM 49 °F 38 °F 56% 29.99 in - SSW 10.4 mph - -  
4:20 AM 50.0 °F 41.0 °F 71% 29.98 in 6.2 mi SW 9.2 mph - N/A   Partly Cloudy
4:50 AM 50.0 °F 37.4 °F 62% 29.95 in 6.2 mi SSW 12.7 mph - N/A   Partly Cloudy
5:20 AM 50.0 °F 37.4 °F 62% 29.95 in - South 12.7 mph - N/A   Clear
5:50 AM 50.0 °F 35.6 °F 58% 29.95 in 6.2 mi SSW 13.8 mph - N/A   Partly Cloudy
6:20 AM 50.0 °F 35.6 °F 58% 29.95 in 6.2 mi SSW 13.8 mph - N/A   Partly Cloudy
6:50 AM 50.0 °F 37.4 °F 62% 29.92 in - SSW 16.1 mph - N/A   Clear
7:00 AM 49 °F 37 °F 52% 29.94 in 6 mi SSW 15.0 mph - -  
7:20 AM 50.0 °F 37.4 °F 62% 29.92 in - South 18.4 mph - N/A   Clear
7:50 AM 50.0 °F 39.2 °F 66% 29.92 in 6.2 mi SSW 18.4 mph - N/A Rain Light Rain
8:20 AM 50.0 °F 39.2 °F 66% 29.92 in 6.2 mi South 19.6 mph - N/A Rain Light Rain
8:50 AM 48.2 °F 41.0 °F 76% 29.92 in 5.0 mi SSW 19.6 mph 31.1 mph N/A Rain Light Rain Showers
9:20 AM 50.0 °F 41.0 °F 71% 29.92 in 6.2 mi South 19.6 mph 31.1 mph N/A Rain Light Rain
9:50 AM 50.0 °F 42.8 °F 76% 29.92 in 4.3 mi South 18.4 mph - N/A Rain Light Rain
10:00 AM 49 °F 42 °F 71% 29.92 in 6 mi South 18.4 mph - - Rain Light Rain
10:20 AM 50.0 °F 44.6 °F 82% 29.92 in 4.3 mi SSW 17.3 mph - N/A Rain Light Rain
10:50 AM 48.2 °F 44.6 °F 87% 29.92 in 3.1 mi SW 16.1 mph - N/A Rain Light Rain
11:20 AM 48.2 °F 42.8 °F 82% 29.89 in 5.6 mi South 16.1 mph - N/A Rain Light Rain
11:50 AM 48.2 °F 42.8 °F 82% 29.89 in 6.2 mi SSW 17.3 mph - N/A   Scattered Clouds
12:20 PM 48.2 °F 42.8 °F 82% 29.89 in 4.3 mi South 16.1 mph - N/A Rain Light Rain
12:50 PM 50.0 °F 44.6 °F 82% 29.89 in 6.2 mi SSW 17.3 mph - N/A Rain Light Rain
1:00 PM 49 °F 44 °F 79% 29.88 in 6 mi SSW 16.1 mph - - Rain Light Rain
1:20 PM 50.0 °F 44.6 °F 82% 29.86 in 6.2 mi SSW 16.1 mph - N/A Rain , Thunderstorm Light Thunderstorms and Rain
1:50 PM 51.8 °F 46.4 °F 82% 29.86 in 5.6 mi SW 15.0 mph 29.9 mph N/A Rain , Thunderstorm Light Thunderstorms and Rain
2:20 PM 55.4 °F 44.6 °F 67% 29.83 in 6.2 mi West 25.3 mph - N/A   Scattered Clouds
2:50 PM 55.4 °F 42.8 °F 63% 29.86 in 6.2 mi West 27.6 mph - N/A   Scattered Clouds
3:20 PM 53.6 °F 41.0 °F 62% 29.86 in 6.2 mi WNW 28.8 mph - N/A   Mostly Cloudy
3:50 PM 48.2 °F 42.8 °F 82% 29.89 in 3.7 mi WNW 32.2 mph - N/A Rain Rain
4:00 PM 50 °F 39 °F 55% 29.89 in 9 mi WNW 21.9 mph - -  
4:50 PM 51.8 °F 41.0 °F 67% 29.89 in 6.2 mi West 21.9 mph - N/A   Scattered Clouds
5:20 PM 50.0 °F 41.0 °F 71% 29.89 in 5.6 mi West 18.4 mph - N/A Rain Rain
5:50 PM 50.0 °F 42.8 °F 76% 29.89 in 6.2 mi West 16.1 mph - N/A Rain Light Rain
6:50 PM 51.8 °F 41.0 °F 67% 29.89 in 6.2 mi NW 24.2 mph - N/A   Scattered Clouds
7:20 PM 51.8 °F 42.8 °F 71% 29.89 in 6.2 mi WNW 20.7 mph - N/A Rain Light Rain
7:50 PM 53.6 °F 42.8 °F 67% 29.89 in 6.2 mi NW 24.2 mph - N/A   Scattered Clouds
8:20 PM 51.8 °F 41.0 °F 67% 29.92 in 6.2 mi NW 26.5 mph - N/A Rain Light Rain
8:50 PM 51.8 °F 42.8 °F 71% 29.92 in 6.2 mi NW 23.0 mph - N/A Rain Light Rain
9:20 PM 51.8 °F 42.8 °F 71% 29.92 in 6.2 mi NW 24.2 mph - N/A Rain Light Rain
9:50 PM 51.8 °F 42.8 °F 71% 29.92 in 6.2 mi NNW 26.5 mph - N/A   Scattered Clouds
10:20 PM 51.8 °F 42.8 °F 71% 29.95 in 6.2 mi North 27.6 mph - N/A   Scattered Clouds
10:50 PM 51.8 °F 42.8 °F 71% 29.95 in 6.2 mi North 26.5 mph - N/A   Scattered Clouds
11:20 PM 51.8 °F 42.8 °F 71% 29.98 in 4.3 mi NNW 26.5 mph - N/A Rain Light Rain
11:50 PM 51.8 °F 44.6 °F 76% 29.98 in 4.3 mi North 25.3 mph 36.8 mph N/A Rain Light Rain